{"data":{"norad_id":63404,"epoch":"2026-05-25T01:15:05.760000Z","epoch_age_seconds":84621,"freshness":"FRESH","line1":"1 63404U 25065F   26145.05215000  .00014371  00000+0  53050-3 0  9997","line2":"2 63404  42.9999  35.3927 0000974 275.1598  84.9142 15.27593335 64525","mean_motion":15.27593335,"eccentricity":9.74e-5,"inclination_deg":42.9999,"raan_deg":35.3927,"arg_perigee_deg":275.1598,"mean_anomaly_deg":84.9142,"bstar":0.0005305,"rev_number":6452,"period_min":94.265925819845,"perigee_km":482.34089090626,"apogee_km":483.6774421795,"semimajor_km":6861.1461665429,"source":"CELESTRAK","updated_at":"2026-05-25T13:38:19.968989Z"}}